Regional Weather Roundup
Issued by NWS

Home | Current Version | Previous Version | Graphics & Text | Print | Product List | Glossary On
Versions: 1 2 3 4 5 6 7 8 9 10 11 12 13 14 15 16 17 18 19 20 21 22 23 24 25 26 27 28 29 30 31 32 33 34 35 36 37 38 39 40 41 42 43 44 45 46 47 48 49 50
000
ASUS43 KLOT 281300
RWRIL

ILLINOIS REGIONAL WEATHER ROUNDUP
NATIONAL WEATHER SERVICE CHICAGO/ROMEOVILLE IL
700 AM CST SAT FEB 28 2015

NOTE: "FAIR" INDICATES FEW OR NO CLOUDS BELOW 12,000 FEET WITH NO
SIGNIFICANT WEATHER AND/OR OBSTRUCTIONS TO VISIBILITY.

* THESE STATIONS ARE NOT UNDER NWS QUALITY CONTROL. THEY ALSO MAY NOT
  REPORT WEATHER SUCH AS PRECIPITATION OR FOG.

ILZ001-002-007-009-015-016-024-281400-
NORTHWEST ILLINOIS

CITY           SKY/WX    TMP DP  RH WIND       PRES   REMARKS
MOLINE         MOCLDY   -13 -19  75 E3        30.67F
STERLING*      FAIR     -13 -15  92 CALM      30.67S
$$

ILZ003-004-008-010-011-017-018-281400-
NORTH CENTRAL ILLINOIS

CITY           SKY/WX    TMP DP  RH WIND       PRES   REMARKS
ROCKFORD       MOCLDY   -14 -21  71 CALM      30.69S
FREEPORT*      MOCLDY   -17 -22  76 CALM      30.68S
DE KALB*       PTCLDY    -6 -10  83 S5        30.67S WCI -17
$$

ILZ005-006-012>014-019>023-281400-
NORTHEAST ILLINOIS

CITY           SKY/WX    TMP DP  RH WIND       PRES   REMARKS
CHICAGO-OHARE  MOCLDY    -6  -8  91 CALM      30.70R
CHICAGO-MIDWAY PTCLDY     2  -2  83 CALM      30.72R
AURORA         PTCLDY   -13 -20  71 CALM      30.70R
LANSING*       PTCLDY   -12 -17  79 CALM      30.73R
WAUKEGAN       MOCLDY    -5  -8  87 SW3       30.68S
DUPAGE AIRPORT MOCLDY   -11 -16  78 CALM      30.69R
WHEELING       MOCLDY    -8 -14  74 CALM      30.72R
NORTHERLY ISL    N/A      7  -1  70 SW1         N/A
$$

LMZ740>746-281400-
SOUTHERN LAKE MICHIGAN

STATION/POSITION SKY/WX   TEMP    WIND        PRES    VSBY  WAVE
                          AIR SEA DIR/SP/G                  HT/PER
                          (F)     (DEG/KT/KT) (MB)    (MI)  (FT/S)
WAUKEGAN HARBOR             0     260/  6/  8   N/A
HARRISON CRIB               9     200/  5/  8   N/A
BURNHAM HARBOR              7     200/  1/  3   N/A
CALUMET HARBOR              3     190/  4/  5 1038.6R
MICHIGAN CITY               2     150/  5/  5   N/A
$$

ILZ025>027-034>036-040-047-049-050-058-095>099-281400-
WEST-CENTRAL ILLINOIS

CITY           SKY/WX    TMP DP  RH WIND       PRES   REMARKS
QUINCY         CLOUDY     7  -2  66 E7        30.62S WCI  -5
MACOMB*        CLOUDY     2  -1  85 E3        30.67F
$$

ILZ028>032-037-038-041>044-048-051>054-059>061-281400-
CENTRAL ILLINOIS

CITY           SKY/WX    TMP DP  RH WIND       PRES   REMARKS
DECATUR        CLOUDY    10   2  69 E7        30.68S WCI  -1
PEORIA         CLOUDY     6   0  76 E5        30.68S WCI  -3
SPRINGFIELD    CLOUDY     9   0  67 E5        30.67S WCI   1
TAYLORVILLE    NOT AVBL
$$

ILZ033-039-045-046-055>057-062-063-281400-
EAST-CENTRAL ILLINOIS

CITY           SKY/WX    TMP DP  RH WIND       PRES   REMARKS
CHAMPAIGN      MOCLDY     9   2  73 E9        30.67F WCI  -4
MATTOON        CLOUDY    12   2  64 E6        30.66F WCI   3
$$

ILZ079-100>102-281400-
SOUTHWEST ILLINOIS

CITY           SKY/WX    TMP DP  RH WIND       PRES   REMARKS
ALTON          CLOUDY    14   1  57 E8        30.66R WCI   3
BELLEVILLE     CLOUDY    16   6  65 E6        30.65S WCI   8
CAHOKIA*       CLOUDY    17   7  64 E7        30.66S WCI   8
$$

ILZ064>066-069>071-074>076-080>082-084>086-088>090-092>094-281400-
SOUTH-CENTRAL ILLINOIS

CITY           SKY/WX    TMP DP  RH WIND       PRES   REMARKS
CARBONDALE     CLOUDY    19   7  59 E6        30.65S WCI  11
MARION         CLOUDY    19   9  63 NE6       30.66S WCI  11
MT. VERNON     CLOUDY    16   5  62 NE5       30.66S WCI   9
$$

ILZ067-068-072-073-078-083-087-091-281400-
SOUTHEAST ILLINOIS

CITY           SKY/WX    TMP DP  RH WIND       PRES   REMARKS
LAWRENCEVILLE  CLOUDY    15   6  67 E7        30.69S WCI   5
$$

ABBREVIATIONS USED IN REMARKS
   TC - TEMPERATURE IN CELSIUS
  WCI - WIND CHILL INDEX
   HX - HEAT INDEX
  VSB - VISIBILITY
$$



USA.gov is the U.S. government's official web portal to all federal, state and local government web resources and services.